TimeEST,TemperatureF,Dew PointF,Humidity,Sea Level PressureIn,VisibilityMPH,Wind Direction,Wind SpeedMPH,Gust SpeedMPH,PrecipitationIn,Events,Conditions,WindDirDegrees,DateUTC
12:53 AM,21.9,8.1,55,30.12,10.0,WNW,10.4,19.6,N/A,,Scattered Clouds,290,2013-02-21 05:53:00
1:53 AM,21.9,9.0,58,30.12,10.0,WNW,6.9,-,N/A,,Partly Cloudy,290,2013-02-21 06:53:00
2:53 AM,21.0,9.0,60,30.12,10.0,West,4.6,-,N/A,,Partly Cloudy,260,2013-02-21 07:53:00
3:53 AM,21.0,10.0,63,30.12,10.0,WNW,12.7,-,N/A,,Partly Cloudy,300,2013-02-21 08:53:00
4:53 AM,23.0,10.0,58,30.12,10.0,WNW,10.4,-,N/A,,Overcast,290,2013-02-21 09:53:00
5:53 AM,23.0,9.0,55,30.14,10.0,WNW,8.1,-,N/A,,Overcast,290,2013-02-21 10:53:00
6:53 AM,23.0,10.0,58,30.15,10.0,WNW,9.2,-,N/A,,Overcast,300,2013-02-21 11:53:00
7:53 AM,24.1,10.0,55,30.17,10.0,WNW,8.1,18.4,N/A,,Overcast,300,2013-02-21 12:53:00
9:53 AM,28.0,10.9,49,30.18,10.0,WNW,13.8,20.7,N/A,,Overcast,290,2013-02-21 14:53:00
10:53 AM,30.0,12.9,49,30.19,10.0,WNW,16.1,-,N/A,,Scattered Clouds,300,2013-02-21 15:53:00
11:53 AM,30.9,12.9,47,30.18,10.0,NNW,16.1,21.9,N/A,,Scattered Clouds,330,2013-02-21 16:53:00
1:53 PM,32.0,12.9,45,30.17,10.0,WNW,10.4,21.9,N/A,,Partly Cloudy,290,2013-02-21 18:53:00
2:53 PM,33.1,14.0,46,30.18,10.0,NW,17.3,-,N/A,,Clear,310,2013-02-21 19:53:00
3:53 PM,33.1,12.9,43,30.19,10.0,NNW,15.0,23.0,N/A,,Clear,340,2013-02-21 20:53:00
4:53 PM,33.1,14.0,46,30.19,10.0,NNW,9.2,-,N/A,,Clear,330,2013-02-21 21:53:00
5:53 PM,30.9,14.0,50,30.24,10.0,WNW,5.8,-,N/A,,Clear,300,2013-02-21 22:53:00
6:53 PM,28.9,15.1,56,30.29,10.0,WNW,4.6,-,N/A,,Clear,290,2013-02-21 23:53:00
7:53 PM,26.1,16.0,66,30.30,10.0,WNW,4.6,-,N/A,,Clear,290,2013-02-22 00:53:00
8:53 PM,24.1,15.1,69,30.31,10.0,WNW,3.5,-,N/A,,Clear,290,2013-02-22 01:53:00
9:53 PM,26.1,15.1,63,30.32,10.0,Calm,Calm,-,N/A,,Clear,0,2013-02-22 02:53:00
10:53 PM,25.0,15.1,66,30.34,10.0,SSW,3.5,-,N/A,,Clear,210,2013-02-22 03:53:00
11:53 PM,21.9,16.0,78,30.34,10.0,WNW,3.5,-,N/A,,Clear,290,2013-02-22 04:53:00